This demonstration page uses our WeatherBlox Daily Observations layout. Learn more.

Left ArrowRight Arrow

39.01783, -85.05884

Hourly Observations for January 12, 2021

Temp ( °F °C ) Dew Point ( °F °C ) Humidity (%) Winds ( mph kmh ) Pressure ( in mb ) Visibility ( mi km ) Precip ( " mm )
12:52 am 00:52 Cloudy with Haze 24 -4.4 19 -7.2 81 81 WSW 8 13 30.27 1025 5 8 0.00 0.00
1:52 am 01:52 Cloudy with Haze 25 -3.9 19 -7.2 78 78 W 7 11 30.27 1025 5 8 0.00 0.00
2:52 am 02:52 Cloudy with Haze 24 -4.4 19 -7.2 81 81 SW 9 15 30.27 1025 5 8 0.00 0.00
3:52 am 03:52 Cloudy with Haze 24 -4.4 19 -7.2 81 81 SW 9 15 30.27 1025 5 8 0.00 0.00
4:52 am 04:52 Cloudy with Haze 24 -4.4 19 -7.2 81 81 WSW 10 17 30.26 1025 5 8 0.00 0.00
5:00 am 05:00 Cloudy with Haze 24 -4.4 19 -7.2 81 81 WSW 7 11 30.30 1026 5 8 0.00 0.00
5:52 am 05:52 Cloudy with Haze 23 -5 18 -7.8 81 81 WSW 8 13 30.27 1025 5 8 0.00 0.00
6:37 am 06:37 Cloudy with Haze 23 -5 18 -7.8 81 81 W 10 17 30.33 1027 4 6 0.00 0.00
6:52 am 06:52 Cloudy with Light Snow 24 -4.4 19 -7.2 81 81 W 9 15 30.29 1026 4 6 0.00 0.00
7:52 am 07:52 Cloudy with Mist and Fog 24 -4.4 19 -7.2 81 81 WSW 8 13 30.29 1026 5 8 0.00 0.00
8:52 am 08:52 Cloudy with Mist and Fog 24 -4.4 20 -6.7 84 84 SW 6 9 30.29 1026 4 6 0.00 0.00
9:52 am 09:52 Cloudy with Mist and Fog 25 -3.9 20 -6.7 81 81 SW 8 13 30.28 1026 3 5 0.00 0.00
10:52 am 10:52 Cloudy with Mist and Fog 25 -3.9 20 -6.7 81 81 S 7 11 30.29 1026 3 5 0.00 0.00
11:52 am 11:52 Cloudy with Mist and Fog 27 -2.8 21 -6.1 78 78 SSW 8 13 30.27 1025 4 6 0.00 0.00
12:52 pm 12:52 Cloudy with Haze 28 -2.2 21 -6.1 75 75 S 12 19 30.23 1024 5 8 0.00 0.00
12:59 pm 12:59 Cloudy with Haze 28 -2.2 22 -5.6 78 78 S 14 22 30.26 1025 5 8 0.00 0.00
1:52 pm 13:52 Mostly Cloudy with Haze 31 -0.6 23 -5 72 72 SW 12 19 30.22 1023 6 10 0.00 0.00
2:16 pm 14:16 Hazy 31 -0.6 23 -5 72 72 SSW 8 13 30.24 1024 6 10 0.00 0.00
2:52 pm 14:52 Hazy 33 0.6 23 -5 66 66 SSW 9 15 30.20 1023 6 10 0.00 0.00
3:52 pm 15:52 Sunny 34 1.1 23 -5 64 64 SW 12 19 30.19 1023 7 11 0.00 0.00
4:52 pm 16:52 Sunny 33 0.6 23 -5 66 66 SSW 10 17 30.18 1022 7 11 0.00 0.00
5:52 pm 17:52 Hazy 31 -0.6 22 -5.6 69 69 S 8 13 30.18 1022 6 10 0.00 0.00
6:52 pm 18:52 Clear 31 -0.6 23 -5 72 72 S 10 17 30.17 1022 7 11 0.00 0.00
7:52 pm 19:52 Clear 31 -0.6 22 -5.6 69 69 SSW 9 15 30.17 1022 8 13 0.00 0.00
8:52 pm 20:52 Clear 30 -1.1 22 -5.6 72 72 SSW 9 15 30.17 1022 7 11 0.00 0.00
9:52 pm 21:52 Clear 30 -1.1 22 -5.6 72 72 SSW 8 13 30.17 1022 7 11 0.00 0.00
10:52 pm 22:52 Clear 30 -1.1 22 -5.6 72 72 SSW 9 15 30.16 1021 7 11 0.00 0.00
11:52 pm 23:52 Clear 29 -1.7 22 -5.6 75 75 SSW 6 9 30.15 1021 7 11 0.00 0.00

Powered by AerisWeather